Location: Tauranga
(37.6860°S, 176.1670°E)
Time: 02:58:16
(UTC+13:00)

Mayak - Visible Passes

Search period start: 09 December 2019 00:00
Search period end: 19 December 2019 00:00
Orbit: 582 x 601 km, 97.5° (Epoch: 08 December)

Date Brightness Start Highest point End Pass type
(mag) Time Alt. Az. Time Alt. Az. Time Alt. Az.
09 Dec -1.4 22:56:20 73° NE 22:56:42 83° ESE 23:00:56 10° S visible
10 Dec -1.3 23:04:55 72° NNW 23:05:13 78° WNW 23:09:27 10° SSW visible
11 Dec 1.1 21:37:46 10° ESE 21:38:45 11° ESE 21:39:46 10° SE visible
11 Dec -1.0 23:13:30 59° WNW 23:13:45 60° W 23:17:56 10° SSW visible
12 Dec 0.9 21:45:30 11° E 21:47:11 13° ESE 21:49:14 10° SE visible
12 Dec -0.6 23:22:04 46° WNW 23:22:18 47° W 23:26:23 10° SSW visible
13 Dec 0.6 21:54:05 14° E 21:55:36 17° ESE 21:58:18 10° SSE visible
13 Dec -0.2 23:30:39 36° WNW 23:30:51 37° W 23:34:46 10° SSW visible
14 Dec 0.4 22:02:39 17° E 22:04:03 20° ESE 22:07:11 10° SSE visible
14 Dec 0.2 23:39:14 29° W 23:39:25 29° W 23:43:07 10° SW visible
15 Dec 0.1 22:11:14 22° E 22:12:30 25° ESE 22:15:58 10° SSE visible
15 Dec 0.5 23:47:49 23° W 23:47:59 23° W 23:51:23 10° SW visible
16 Dec -0.2 22:19:49 27° ENE 22:20:57 31° ESE 22:24:42 10° S visible
16 Dec 0.8 23:56:23 19° W 23:56:34 19° W 23:59:33 10° SW visible
17 Dec -0.5 22:28:24 33° ENE 22:29:26 39° ESE 22:33:23 10° S visible
18 Dec 1.1 00:04:58 15° W 00:05:09 15° W 00:07:35 10° WSW visible
18 Dec -0.9 22:36:59 41° ENE 22:37:55 50° ESE 22:42:01 10° S visible
